Погода в Сучаве

Румыния     47°39′37″N   26°16′10″E
темп.,
°C
ветер,
м/с
пор.,
м/с
влажн.,
%
обл.,
%
осадки,
мм/ч
давл.,
гПа
погр.,
м
13 апреля, вт
вт1300:00+9ю22605 0.0 101911
03:00+8ююз11655 0.0 101810
06:00+7ю11730 0.0 101810
09:00+11ю12565 0.0 1017198
12:00+16вюв334212 0.0 1016861
15:00+18в43397 0.0 10151644
18:00+16всв544544 0.0 10131251
21:00+9ссз6976100 0.0 1015386
14 апреля, ср
ср1400:00+6ссз5684100 0.0 1016321
03:00+5ссз358470 0.0 1015295
06:00+5ссз3484100 0.0 1014270
09:00+5ссз3382100 0.0 1014368
12:00+5ссз4380100 0.0 1014454
15:00+4сз6780100 0.0 1014383
18:00+3сз71181100 0.1 1014441
21:00+1сз71496100 2.6 1015448
15 апреля, чт
чт1500:000сз81597100 2.6 1014535
03:000сз71498100 5.0 1014633
06:000сз81498100 3.1 1014674
09:000сз81599100 5.8 1015697
12:00+1сз814100100 1.7 1015683
15:00+1сз815100100 2.7 1015616
18:00+1сз81699100 1.6 1015634
21:00+1сз81699100 5.6 1015674
16 апреля, пт
пт1600:00+1сз612100100 2.1 1015531
03:00+1сз411100100 2.4 1014457
06:00+1зсз410100100 0.2 1013536
09:00+1з410100100 2.1 1013534
12:00+2зсз411100100 1.4 1013660
15:00+3сз61399100 3.4 1014821
18:00+3сз51398100 0.8 1015680
21:00+3сз71398100 1.9 1016818
17 апреля, сб
сб1700:00+3сз61298100 0.6 1017770
03:00+3зсз3896100 0.7 1018398
06:00+3зсз3994100 0.1 1019671
09:00+3сз4897100 0.3 1020518
12:00+4сз3696100 0.0 1021491
15:00+5ссз3595100 0.1 1021428
18:00+6ссз3381100 0.1 1021690
21:00+5с2280100 0.1 102235